| time (UTC) | temp F | wind direction | speed knots | gust knots | rain 1hr in | rain 24hr in | rain mn in | humidity % | barometer mb |
| 20260506104106 | 51 | 243 | 0.0 | 0.0 | 0.00 | 0.03 | 0.00 | 86 | 1018.6 |
| 20260506103105 | 51 | 243 | 0.0 | 0.0 | 0.00 | 0.04 | 0.00 | 86 | 1018.3 |
| 20260506102104 | 51 | 243 | 0.0 | 0.0 | 0.00 | 0.05 | 0.00 | 85 | 1018.3 |
| 20260506101103 | 51 | 243 | 0.0 | 0.0 | 0.00 | 0.05 | 0.00 | 84 | 1018.3 |
| 20260506095101 | 53 | 243 | 0.0 | 0.0 | 0.00 | 0.06 | 0.00 | 80 | 1017.9 |
| 20260506094101 | 53 | 243 | 0.0 | 0.0 | 0.00 | 0.06 | 0.00 | 79 | 1017.9 |
| 20260506093100 | 53 | 243 | 0.0 | 0.0 | 0.00 | 0.07 | 0.00 | 79 | 1017.9 |
| 20260506092059 | 53 | 243 | 0.0 | 0.0 | 0.00 | 0.07 | 0.00 | 78 | 1017.9 |
| 20260506091058 | 54 | 243 | 0.0 | 0.0 | 0.00 | 0.08 | 0.00 | 76 | 1017.6 |
| 20260506090057 | 54 | 243 | 0.0 | 0.0 | 0.00 | 0.09 | 0.00 | 75 | 1017.6 |
| 20260506085055 | 55 | 243 | 0.0 | 0.0 | 0.00 | 0.10 | 0.00 | 73 | 1017.9 |
| 20260506084055 | 56 | 243 | 0.0 | 0.0 | 0.00 | 0.11 | 0.00 | 68 | 1017.9 |
| 20260506083054 | 56 | 243 | 0.0 | 0.0 | 0.00 | 0.12 | 0.11 | 68 | 1017.9 |
| 20260506082053 | 57 | 243 | 0.0 | 0.0 | 0.00 | 0.13 | 0.11 | 66 | 1017.9 |
| 20260506081052 | 59 | 243 | 0.0 | 6.1 | 0.00 | 0.13 | 0.11 | 64 | 1017.9 |
| 20260506073049 | 58 | 243 | 0.0 | 4.3 | 0.00 | 0.17 | 0.11 | 64 | 1017.9 |
| 20260506072048 | 57 | 243 | 0.0 | 0.0 | 0.00 | 0.18 | 0.11 | 62 | 1017.9 |
| 20260506071047 | 58 | 243 | 0.0 | 0.0 | 0.00 | 0.19 | 0.11 | 60 | 1017.9 |
| 20260506062011 | 61 | 243 | 2.6 | 4.3 | 0.00 | 0.23 | 0.11 | 49 | 1017.6 |
| 20260506060909 | 62 | 243 | 2.6 | 4.3 | 0.00 | 0.24 | 0.11 | 49 | 1017.6 |
| 20260506050904 | 64 | 226 | 2.6 | 7.0 | 0.00 | 0.26 | 0.11 | 51 | 1017.3 |
| 20260506044831 | 64 | 259 | 2.6 | 6.1 | 0.00 | 0.27 | 0.11 | 50 | 1016.9 |
| 20260506043830 | 64 | 259 | 0.9 | 7.0 | 0.00 | 0.27 | 0.11 | 47 | 1016.9 |
| 20260506042829 | 63 | 259 | 2.6 | 7.0 | 0.00 | 0.27 | 0.11 | 47 | 1016.9 |
| 20260506041828 | 63 | 259 | 0.0 | 5.2 | 0.00 | 0.28 | 0.11 | 47 | 1016.6 |
| 20260506040827 | 63 | 259 | 0.0 | 3.5 | 0.00 | 0.28 | 0.11 | 47 | 1016.6 |
| 20260506035756 | 65 | 259 | 0.0 | 5.2 | 0.00 | 0.28 | 0.11 | 42 | 1016.3 |
| 20260506034724 | 65 | 259 | 0.0 | 3.5 | 0.00 | 0.28 | 0.11 | 42 | 1016.3 |
| 20260506033723 | 66 | 259 | 0.0 | 5.2 | 0.00 | 0.28 | 0.11 | 40 | 1016.3 |
| 20260506032722 | 66 | 259 | 1.7 | 6.1 | 0.00 | 0.28 | 0.11 | 38 | 1015.9 |
| 20260506031721 | 66 | 259 | 2.6 | 8.7 | 0.00 | 0.28 | 0.11 | 38 | 1015.9 |
| 20260506030720 | 67 | 257 | 1.7 | 8.7 | 0.00 | 0.28 | 0.11 | 36 | 1015.6 |
| 20260506025719 | 67 | 259 | 1.7 | 7.8 | 0.00 | 0.29 | 0.11 | 36 | 1015.6 |
| 20260506024718 | 67 | 260 | 3.5 | 9.6 | 0.00 | 0.31 | 0.11 | 36 | 1015.6 |
| 20260506023718 | 67 | 280 | 3.5 | 9.6 | 0.00 | 0.32 | 0.11 | 36 | 1015.2 |
| 20260506022717 | 68 | 262 | 3.5 | 9.6 | 0.00 | 0.33 | 0.11 | 36 | 1015.2 |
| 20260506021716 | 68 | 275 | 2.6 | 10.4 | 0.00 | 0.34 | 0.11 | 36 | 1014.9 |
| 20260506020715 | 69 | 268 | 3.5 | 12.2 | 0.00 | 0.34 | 0.11 | 36 | 1014.6 |
| 20260506015714 | 70 | 260 | 5.2 | 14.8 | 0.00 | 0.35 | 0.11 | 35 | 1014.6 |
| 20260506014712 | 71 | 264 | 4.3 | 14.8 | 0.00 | 0.37 | 0.11 | 35 | 1014.6 |
| 20260506013641 | 71 | 260 | 5.2 | 14.8 | 0.00 | 0.38 | 0.11 | 33 | 1014.2 |
| 20260506012537 | 72 | 254 | 3.5 | 13.0 | 0.00 | 0.39 | 0.11 | 33 | 1014.2 |
| 20260506011536 | 73 | 257 | 6.1 | 13.0 | 0.00 | 0.39 | 0.11 | 29 | 1014.2 |
| 20260506010535 | 74 | 244 | 6.1 | 13.0 | 0.00 | 0.40 | 0.11 | 29 | 1013.9 |
| 20260506005534 | 74 | 249 | 5.2 | 13.9 | 0.00 | 0.41 | 0.11 | 29 | 1013.9 |
| 20260506004533 | 74 | 239 | 7.0 | 13.9 | 0.00 | 0.41 | 0.11 | 29 | 1013.9 |
| 20260506003532 | 75 | 242 | 6.1 | 16.5 | 0.00 | 0.42 | 0.11 | 29 | 1013.5 |
| 20260506002531 | 75 | 247 | 7.0 | 15.6 | 0.00 | 0.42 | 0.11 | 30 | 1013.5 |
| 20260506001530 | 76 | 240 | 7.0 | 13.0 | 0.00 | 0.42 | 0.11 | 30 | 1013.5 |
| 20260506000426 | 74 | 247 | 5.2 | 13.9 | 0.00 | 0.42 | 0.11 | 31 | 1013.5 |
| 20260505235425 | 75 | 271 | 5.2 | 13.9 | 0.00 | 0.42 | 0.11 | 30 | 1013.5 |
| 20260505234424 | 75 | 225 | 4.3 | 16.5 | 0.00 | 0.42 | 0.11 | 30 | 1013.5 |
| 20260505233423 | 75 | 215 | 7.0 | 16.5 | 0.00 | 0.42 | 0.11 | 29 | 1013.5 |
| 20260505232422 | 74 | 210 | 8.7 | 14.8 | 0.00 | 0.42 | 0.11 | 29 | 1013.5 |
| 20260505231421 | 76 | 225 | 7.8 | 16.5 | 0.00 | 0.42 | 0.11 | 28 | 1013.5 |
| 20260505230349 | 75 | 222 | 6.1 | 16.5 | 0.00 | 0.42 | 0.11 | 28 | 1013.5 |
| 20260505225348 | 75 | 227 | 6.1 | 14.8 | 0.00 | 0.42 | 0.11 | 30 | 1013.5 |
| 20260505224316 | 76 | 205 | 6.1 | 16.5 | 0.00 | 0.42 | 0.11 | 29 | 1013.5 |
| 20260505223243 | 77 | 215 | 6.1 | 14.8 | 0.00 | 0.42 | 0.11 | 29 | 1013.5 |
| 20260505222242 | 77 | 230 | 7.8 | 14.8 | 0.00 | 0.42 | 0.11 | 28 | 1013.5 |
| 20260505221241 | 76 | 231 | 9.6 | 20.9 | 0.00 | 0.42 | 0.11 | 29 | 1013.9 |
| 20260505220241 | 76 | 247 | 7.8 | 21.7 | 0.00 | 0.42 | 0.11 | 31 | 1013.9 |
| 20260505215239 | 76 | 244 | 8.7 | 22.6 | 0.00 | 0.42 | 0.11 | 32 | 1013.9 |
| 20260505214207 | 76 | 241 | 9.6 | 19.1 | 0.00 | 0.42 | 0.11 | 31 | 1014.2 |
| 20260505213206 | 76 | 236 | 11.3 | 20.9 | 0.00 | 0.42 | 0.11 | 33 | 1014.2 |
| 20260505212205 | 75 | 232 | 6.1 | 20.9 | 0.00 | 0.42 | 0.11 | 37 | 1014.2 |
| 20260505211133 | 73 | 250 | 6.1 | 15.6 | 0.00 | 0.42 | 0.11 | 39 | 1014.2 |
| 20260505210132 | 76 | 276 | 7.0 | 18.2 | 0.00 | 0.42 | 0.11 | 37 | 1014.2 |
| 20260505205131 | 73 | 257 | 7.8 | 18.2 | 0.00 | 0.42 | 0.11 | 40 | 1014.2 |
| 20260505204129 | 72 | 246 | 5.2 | 15.6 | 0.00 | 0.42 | 0.11 | 42 | 1014.2 |
| 20260505203129 | 71 | 221 | 3.5 | 9.6 | 0.00 | 0.42 | 0.11 | 50 | 1014.2 |
| 20260505202057 | 70 | 306 | 3.5 | 9.6 | 0.00 | 0.42 | 0.11 | 52 | 1014.6 |
| 20260505201056 | 70 | 265 | 1.7 | 7.8 | 0.00 | 0.42 | 0.11 | 54 | 1014.6 |
| 20260505200055 | 72 | 261 | 3.5 | 9.6 | 0.00 | 0.42 | 0.11 | 51 | 1014.9 |
| 20260505195055 | 71 | 256 | 4.3 | 9.6 | 0.00 | 0.42 | 0.11 | 51 | 1014.9 |
| 20260505194054 | 70 | 309 | 2.6 | 8.7 | 0.00 | 0.42 | 0.11 | 53 | 1014.6 |
| 20260505192950 | 71 | 250 | 3.5 | 8.7 | 0.00 | 0.42 | 0.11 | 52 | 1014.9 |
| 20260505191950 | 73 | 282 | 3.5 | 9.6 | 0.00 | 0.42 | 0.11 | 51 | 1014.9 |
| 20260505190949 | 72 | 295 | 5.2 | 8.7 | 0.00 | 0.42 | 0.11 | 52 | 1015.2 |
| 20260505185948 | 70 | 264 | 4.3 | 8.7 | 0.00 | 0.42 | 0.11 | 58 | 1015.2 |
| 20260505184947 | 69 | 270 | 2.6 | 7.0 | 0.00 | 0.42 | 0.11 | 62 | 1015.6 |
| 20260505183946 | 70 | 256 | 3.5 | 7.0 | 0.00 | 0.42 | 0.11 | 57 | 1015.6 |
| 20260505182945 | 70 | 241 | 2.6 | 6.1 | 0.00 | 0.42 | 0.11 | 61 | 1015.6 |
| 20260505181944 | 68 | 241 | 2.6 | 4.3 | 0.00 | 0.42 | 0.11 | 61 | 1015.9 |
| 20260505180943 | 67 | 241 | 0.0 | 7.0 | 0.00 | 0.42 | 0.11 | 66 | 1015.9 |
| 20260505175942 | 68 | 238 | 3.5 | 7.0 | 0.00 | 0.42 | 0.11 | 62 | 1015.9 |
| 20260505174942 | 67 | 77 | 0.0 | 0.0 | 0.00 | 0.42 | 0.11 | 63 | 1015.9 |
| 20260505173941 | 68 | 80 | 0.0 | 0.0 | 0.00 | 0.42 | 0.11 | 68 | 1015.9 |
| 20260505172939 | 66 | 263 | 0.0 | 0.0 | 0.00 | 0.42 | 0.11 | 70 | 1015.9 |
| 20260505171938 | 66 | 263 | 0.0 | 0.0 | 0.00 | 0.42 | 0.11 | 70 | 1015.9 |
| 20260505170937 | 65 | 263 | 0.0 | 0.0 | 0.00 | 0.42 | 0.11 | 74 | 1015.9 |
| 20260505165936 | 65 | 263 | 0.0 | 0.0 | 0.00 | 0.42 | 0.11 | 74 | 1015.9 |
| 20260505164935 | 64 | 263 | 0.0 | 0.0 | 0.00 | 0.42 | 0.11 | 75 | 1015.9 |
| 20260505163935 | 64 | 263 | 0.0 | 0.0 | 0.00 | 0.42 | 0.11 | 77 | 1015.9 |
| 20260505162903 | 63 | 263 | 0.0 | 0.0 | 0.00 | 0.42 | 0.11 | 80 | 1015.9 |
| 20260505161902 | 63 | 263 | 0.0 | 0.0 | 0.00 | 0.42 | 0.11 | 84 | 1015.9 |
| 20260505160901 | 62 | 263 | 0.0 | 0.0 | 0.00 | 0.42 | 0.11 | 85 | 1015.9 |
| 20260505152858 | 61 | 300 | 0.0 | 0.0 | 0.00 | 0.42 | 0.11 | 92 | 1015.6 |
| 20260505151857 | 60 | 300 | 0.0 | 0.0 | 0.00 | 0.42 | 0.11 | 93 | 1015.6 |
| 20260505150856 | 60 | 300 | 0.0 | 0.0 | 0.00 | 0.42 | 0.11 | 94 | 1015.6 |
| 20260505124608 | 58 | 291 | 0.0 | 0.0 | 0.01 | 0.42 | 0.11 | 95 | 1014.6 |
| 20260505123607 | 58 | 291 | 0.0 | 0.0 | 0.01 | 0.42 | 0.11 | 95 | 1014.6 |
| 20260505122606 | 58 | 291 | 0.0 | 0.0 | 0.02 | 0.42 | 0.11 | 94 | 1014.2 |
| 20260505121605 | 58 | 312 | 0.0 | 0.0 | 0.01 | 0.41 | 0.10 | 94 | 1014.2 |
| 20260505120604 | 58 | 312 | 0.0 | 0.0 | 0.01 | 0.41 | 0.10 | 94 | 1013.9 |
| 20260505115532 | 58 | 312 | 0.0 | 0.0 | 0.02 | 0.41 | 0.10 | 94 | 1013.9 |
| 20260505114531 | 58 | 312 | 0.0 | 0.0 | 0.02 | 0.41 | 0.10 | 94 | 1013.9 |
| 20260505113530 | 58 | 312 | 0.0 | 0.0 | 0.02 | 0.41 | 0.10 | 94 | 1013.9 |
| 20260505112529 | 58 | 312 | 0.0 | 0.0 | 0.02 | 0.40 | 0.09 | 94 | 1014.2 |
| 20260505111528 | 58 | 312 | 0.0 | 0.0 | 0.03 | 0.40 | 0.09 | 94 | 1013.9 |
| 20260505110527 | 58 | 312 | 0.0 | 0.0 | 0.03 | 0.40 | 0.09 | 94 | 1014.6 |